Location: *
(45.9500°N, 9.0833°E)
Time: 21:33:04
(UTC+00:00)

Meteor 2-4 Rocket - Pass Details

Date: 03 March 2021
Orbit: 799 x 908 km, 81.2° (Epoch: 21 April)

Event Time Altitude Azimuth Distance (km) Brightness Sun altitude
Rises 18:45:51 0° 347° (NNW) 3,490 7.2 -16.9°
Reaches altitude 10° 18:48:17 10° 347° (NNW) 2,561 6.5 -17.3°
Maximum altitude 18:54:08 79° 262° (W) 921 3.9 -18.3°
Drops below altitude 10° 19:00:03 10° 176° (S) 2,583 6.1 -19.3°
Sets 19:02:31 0° 175° (S) 3,522 6.8 -19.7°
